sat.trackr.live / text

‹ back to catalog

WGS F1 (USA 195)

NORAD 32258 · 2007-046A

PAYLOAD ACTIVE UNKNOWN

§ Identity

Operator
Country
US
Launch date
2007-10-11
Launch site
AFETR
Launch vehicle
Mass (kg)
RCS (m²)
15.89

Purposes: comms

External: N2YO · Heavens-Above · Gunter

§ Orbital elements

Epoch: 2026-09-19T06:30:20.471328Z

Period
1,436.09 min
Inclination
0.0135°
Eccentricity
0.0000566
Mean motion
1.00272373 rev/d
Perigee alt
35,784.0 km
Apogee alt
35,788.8 km
Semi-major
42,164.6 km
B*
0.0000e+0
RAAN
125.6676°
Arg perigee
57.2121°
Mean anomaly
230.3842°
Rev number
5,327

§ Raw data

WGS F1 (USA 195)1 32258U 07046A   26262.27107027 -.00000271  00000+0  00000+0 0  99902 32258   0.0135 125.6676 0000566  57.2121 230.3842  1.00272373 53273

JSON: /api/v1/satellites/32258 · /tle

For live sub-satellite position, see the globe view (requires WebGL).

§ Visibility from observer

Set your observer location to see the next 7 days of passes ≥ 10°. The values pass through the URL so the page stays shareable.

No JS? Fill the form by hand. The geolocation button needs JavaScript.